Date,TemperatureHighF,TemperatureAvgF,TemperatureLowF,DewpointHighF,DewpointAvgF,DewpointLowF,HumidityHigh,HumidityAvg,HumidityLow,PressureMaxIn,PressureMinIn,WindSpeedMaxMPH,WindSpeedAvgMPH,GustSpeedMaxMPH,PrecipitationSumIn
2013-1-1,13,12,10,6,4,1,74,72,66,30.01,29.97,1,0,1,0.00
2013-1-2,24,14,8,5,2,-1,67,59,43,30.14,30.00,2,0,2,0.00
2013-1-3,28,16,7,4,0,-5,68,49,32,30.16,30.08,3,0,3,0.00
2013-1-4,38,26,18,12,3,-6,49,37,29,30.11,29.98,3,0,3,0.00
2013-1-5,32,23,18,15,9,4,58,53,46,30.20,30.00,3,0,3,0.00
2013-1-6,44,31,20,12,5,0,58,34,21,30.19,29.97,6,1,6,0.00
2013-1-7,45,36,28,12,8,4,43,31,22,30.01,29.85,7,1,7,0.00
2013-1-8,47,36,29,18,10,-1,53,34,23,30.18,29.83,4,1,4,0.00
2013-1-9,44,33,27,19,15,10,60,47,33,30.27,30.05,6,1,6,0.00
2013-1-10,45,37,30,15,12,6,52,35,21,30.05,29.59,7,1,7,0.00
2013-1-11,36,25,12,22,5,-11,76,43,21,29.72,29.40,13,1,13,0.00
2013-1-12,16,8,0,1,-6,-12,67,51,39,29.82,29.72,3,0,3,0.00
2013-1-13,13,5,-2,4,-4,-10,75,68,56,29.90,29.79,0,0,0,0.00
2013-1-14,13,5,0,6,-2,-7,77,73,70,29.92,29.84,2,0,2,0.00
2013-1-15,24,14,0,14,4,-8,74,63,46,30.05,29.88,0,0,0,0.00
2013-1-16,42,30,22,22,16,12,69,57,42,30.27,30.05,1,0,1,0.00
2013-1-17,42,31,25,21,16,13,65,54,40,30.33,30.18,5,1,5,0.00
2013-1-18,50,35,28,14,6,2,54,31,15,30.18,30.06,4,0,4,0.00
2013-1-19,50,36,28,10,6,2,36,29,16,30.21,30.07,4,1,4,0.00
2013-1-20,43,32,22,13,6,-3,65,34,22,30.18,30.08,4,1,4,0.00
2013-1-21,48,33,20,16,10,2,67,41,27,30.13,30.06,4,1,4,0.00
2013-1-22,56,40,30,3,-2,-8,30,18,10,30.18,30.05,4,1,4,0.00
2013-1-23,61,50,39,4,0,-4,19,12,7,30.19,30.13,4,1,4,0.00
2013-1-24,58,46,36,21,10,-3,47,25,14,30.15,29.99,5,0,5,0.00
2013-1-25,44,37,32,25,21,16,66,52,44,30.16,30.05,5,1,5,0.00
2013-1-26,52,40,32,28,24,20,70,53,33,30.05,29.78,4,0,4,0.00
2013-1-27,53,41,31,29,24,14,82,54,25,29.83,29.74,6,1,6,0.00
2013-1-28,50,36,25,26,21,17,85,56,32,29.80,29.60,6,1,6,0.00
2013-1-29,25,19,13,21,12,4,85,75,48,29.83,29.62,4,0,4,0.00
2013-1-30,32,19,5,19,11,0,81,70,54,29.87,29.77,2,0,2,0.00
2013-1-31,37,28,22,18,15,11,64,57,44,30.07,29.87,4,0,4,0.00
2013-2-1,42,30,22,18,14,11,65,53,32,30.14,29.99,6,1,6,0.00
2013-2-2,48,32,22,21,15,11,70,51,25,30.23,30.12,4,1,4,0.00
2013-2-3,48,36,27,16,12,4,61,40,18,30.18,29.90,2,0,2,0.00
2013-2-4,44,34,26,16,10,5,47,39,28,29.96,29.88,5,1,5,0.00
2013-2-5,48,37,28,17,14,11,50,40,28,30.02,29.88,5,1,5,0.00
2013-2-6,52,38,27,28,20,14,86,52,30,30.00,29.83,5,0,5,0.00
2013-2-7,38,30,20,26,22,15,85,73,59,30.09,30.00,4,1,4,0.00
2013-2-8,43,34,25,22,18,15,69,54,39,30.01,29.74,6,1,6,0.00
2013-2-9,34,28,20,21,18,13,85,69,54,29.74,29.53,5,1,5,0.00
2013-2-10,28,21,16,19,14,8,84,74,56,29.92,29.56,4,0,4,0.00
2013-2-11,21,16,13,14,10,8,82,77,73,29.92,29.84,6,0,6,0.00
2013-2-12,32,24,11,11,3,-3,81,41,24,29.95,29.90,3,0,3,0.00
2013-2-13,41,28,18,16,10,0,59,47,32,29.96,29.89,5,0,5,0.00
2013-2-14,35,26,17,19,14,10,76,59,45,30.11,29.93,6,1,6,0.00
2013-2-15,32,17,11,17,10,5,80,74,48,30.15,30.07,5,0,5,0.00
2013-2-16,48,33,17,20,14,8,78,48,28,30.13,29.97,5,1,5,0.00
2013-2-17,52,38,24,13,4,-3,62,27,12,29.97,29.66,8,1,8,0.00
2013-2-18,34,24,19,18,10,3,80,56,31,29.98,29.75,4,1,4,0.00
2013-2-19,37,26,17,16,11,3,76,54,33,29.97,29.74,4,1,4,0.00
2013-2-20,32,25,18,24,17,10,88,71,56,29.74,29.60,3,0,3,0.00
2013-2-21,22,16,11,15,11,6,82,80,73,29.79,29.60,4,0,4,0.00
2013-2-22,28,19,11,20,13,7,84,78,66,29.84,29.75,4,1,4,0.00
2013-2-23,41,26,12,21,14,5,80,61,35,29.81,29.62,8,1,8,0.00
2013-2-24,25,21,16,21,17,13,87,84,77,29.94,29.66,6,1,6,0.00
2013-2-25,30,20,10,15,10,6,87,69,41,29.94,29.77,2,0,2,0.00
2013-2-26,29,21,14,18,14,6,87,73,55,29.97,29.72,5,1,5,0.00
2013-2-27,31,20,12,15,10,3,87,67,39,30.09,29.97,4,0,4,0.00
2013-2-28,35,23,12,13,8,1,66,52,34,30.13,30.06,4,0,4,0.00
2013-3-1,39,28,17,20,15,8,73,59,43,30.22,30.11,4,0,4,0.00
2013-3-2,50,38,26,25,20,16,66,51,33,30.23,30.06,4,0,4,0.00
2013-3-3,54,43,34,23,20,16,60,42,24,30.06,29.74,5,1,5,0.00
2013-3-4,36,25,10,23,17,4,83,72,56,30.08,29.74,5,1,5,0.00
2013-3-5,38,23,10,24,15,4,83,71,53,30.12,30.04,6,1,6,0.00
2013-3-6,55,41,25,26,18,9,79,41,20,30.04,29.88,5,1,5,0.00
2013-3-7,55,45,35,22,16,12,53,32,20,29.99,29.89,5,1,5,0.00
2013-3-8,47,38,31,31,25,16,83,59,45,29.96,29.69,4,0,4,0.00
2013-3-9,31,30,29,27,26,26,88,86,82,29.69,29.64,2,0,2,0.00
2013-3-10,33,23,17,19,14,11,84,70,50,30.01,29.95,5,1,5,0.00
2013-3-11,45,33,24,25,19,14,88,58,35,30.03,29.91,4,1,4,0.00
2013-3-12,29,26,24,25,23,20,87,85,84,30.15,30.03,3,1,3,0.00
2013-3-13,31,29,27,24,23,23,85,80,72,30.16,30.13,2,1,2,0.00
2013-3-14,60,47,35,25,22,19,56,39,24,30.28,30.18,2,1,2,0.00
2013-3-15,63,50,40,26,22,18,48,34,22,30.18,29.96,2,1,2,0.00
2013-3-16,46,39,34,30,26,19,81,59,40,30.00,29.86,4,1,4,0.00
2013-3-17,52,38,29,28,22,15,78,56,25,29.88,29.62,4,1,4,0.00
2013-3-18,44,32,21,17,12,8,65,46,25,29.92,29.82,3,1,3,0.00
2013-3-19,44,34,25,14,11,7,51,39,27,30.19,29.91,4,1,4,0.00
2013-3-20,46,32,20,20,14,8,66,49,32,30.19,29.80,4,1,4,0.00
2013-3-21,53,40,28,28,24,18,82,56,26,29.82,29.59,5,1,5,0.00
2013-3-22,40,30,22,24,21,18,86,72,46,29.82,29.62,7,2,7,0.00
2013-3-23,22,15,6,18,10,1,85,80,73,30.00,29.76,3,0,3,0.00
2013-3-24,29,14,5,16,5,0,80,69,47,30.02,29.91,3,0,3,0.00
2013-3-25,30,18,5,15,8,-1,81,65,46,30.09,30.01,9,0,9,0.23
2013-3-26,49,32,16,24,16,8,73,54,33,30.06,29.90,6,1,6,0.06
2013-3-27,50,38,25,30,24,18,77,60,39,30.07,29.94,5,1,5,0.00
2013-3-28,56,43,31,29,26,21,76,52,28,30.12,30.04,6,1,6,0.00
2013-3-29,58,46,35,31,26,23,65,49,28,30.13,30.06,5,1,5,0.00
2013-3-30,60,45,35,34,26,20,80,52,24,30.16,30.02,7,1,7,0.00
2013-3-31,62,44,30,32,24,12,87,51,16,30.15,29.97,7,1,7,0.02
2013-4-1,50,38,29,30,24,18,73,58,45,30.09,29.97,9,1,9,0.00
2013-4-2,35,32,29,30,27,23,89,83,73,30.05,29.99,3,0,3,0.00
2013-4-3,51,39,30,37,28,19,90,68,31,30.12,30.02,6,1,6,0.05
2013-4-4,62,47,33,28,24,20,70,44,22,30.14,30.05,5,1,5,0.00
2013-4-5,65,52,42,27,23,19,45,33,19,30.06,29.82,6,1,6,0.00
2013-4-6,58,46,33,30,24,19,61,44,25,29.97,29.89,5,1,5,0.00
2013-4-7,57,45,34,30,24,19,72,46,24,29.91,29.78,8,1,8,0.00
2013-4-8,62,46,24,31,24,19,85,47,21,29.80,29.53,9,2,9,0.00
2013-4-9,24,12,5,19,6,0,84,79,71,29.96,29.73,5,1,5,0.00
2013-4-10,25,13,1,14,6,-4,81,73,61,29.93,29.82,4,0,4,0.09
2013-4-11,47,32,16,33,23,10,86,70,47,29.90,29.71,6,1,6,0.05
2013-4-12,51,37,30,33,28,21,87,73,33,29.96,29.86,5,1,5,0.00
2013-4-13,62,44,28,30,25,18,91,54,20,29.94,29.54,8,1,8,0.00
2013-4-14,49,40,30,31,23,10,86,55,28,29.78,29.55,7,1,7,0.10
2013-4-15,44,31,24,23,16,8,81,57,30,29.91,29.67,8,1,8,0.00
2013-4-16,39,28,22,27,22,18,87,78,59,29.91,29.72,10,2,10,0.01
2013-4-17,32,24,14,26,20,10,86,83,75,29.95,29.80,4,0,4,0.01
2013-4-18,31,20,10,18,12,6,85,74,58,30.04,29.92,4,0,4,0.21
2013-4-19,45,33,17,21,17,10,73,54,33,30.04,29.94,5,0,5,0.02
2013-4-20,50,39,30,29,24,18,78,55,38,30.01,29.88,5,0,5,0.00
2013-4-21,56,43,31,29,25,21,80,53,27,30.05,29.97,6,1,6,0.00
2013-4-22,56,33,18,34,23,13,84,69,32,30.10,29.90,7,1,7,0.00
2013-4-23,30,21,15,20,15,10,83,75,62,30.08,29.99,3,0,3,0.00
2013-4-24,46,33,18,22,18,13,82,56,35,30.16,30.03,9,1,9,0.16
2013-4-25,60,44,29,33,23,14,59,45,24,30.13,29.93,5,1,5,0.00
2013-4-26,60,46,36,26,22,17,58,40,21,30.23,30.01,6,1,6,0.00
2013-4-27,66,51,37,27,21,15,58,34,17,30.22,30.09,5,1,5,0.00
2013-4-28,72,56,42,29,22,14,43,28,15,30.11,29.96,6,1,6,0.00
2013-4-29,74,58,41,34,27,18,59,33,15,30.00,29.80,6,1,6,0.00
2013-4-30,65,52,36,37,29,17,74,43,24,29.97,29.79,7,1,7,0.00
2013-5-1,36,28,20,29,23,16,85,83,75,30.37,29.97,4,1,4,0.00
2013-5-2,38,28,17,21,17,12,84,67,43,30.44,30.28,5,0,5,0.34
2013-5-3,54,39,26,26,21,17,72,51,30,30.28,30.07,5,1,5,0.06
2013-5-4,56,42,31,30,24,20,66,51,35,30.16,30.05,5,1,5,0.00
2013-5-5,52,41,32,22,19,14,58,42,29,30.16,30.05,7,1,7,0.00
2013-5-6,62,48,36,34,27,17,65,46,30,30.10,29.97,6,1,6,0.00
2013-5-7,63,50,40,36,32,30,73,53,30,30.03,29.94,7,1,7,0.00
2013-5-8,52,41,38,40,35,32,89,80,59,30.06,29.98,5,0,5,0.33
2013-5-9,48,40,34,41,36,31,93,86,74,30.17,30.05,4,0,4,0.54
2013-5-10,58,45,34,41,35,31,91,71,39,30.26,30.14,7,1,7,0.05
2013-5-11,60,47,37,43,36,32,85,66,46,30.33,30.24,6,1,6,0.00
2013-5-12,69,56,42,39,34,31,67,46,28,30.25,30.18,5,1,5,0.00
2013-5-13,76,62,48,40,35,30,52,38,23,30.24,30.15,7,1,7,0.00
2013-5-14,77,60,52,44,38,33,65,47,22,30.15,30.04,6,1,6,0.04
2013-5-15,71,58,47,48,41,36,84,57,31,30.08,30.00,5,1,5,0.08
2013-5-16,73,59,45,46,38,29,83,51,23,30.03,29.92,7,1,7,0.00
2013-5-17,80,64,48,44,30,16,74,34,11,30.00,29.91,6,1,6,0.00
2013-5-18,70,58,48,34,25,15,58,29,18,29.98,29.87,6,1,6,0.00
2013-5-19,60,49,41,39,33,28,72,55,32,29.92,29.84,5,0,5,0.02
2013-5-20,60,46,39,43,35,27,83,67,34,30.05,29.89,5,1,5,0.05
2013-5-21,64,56,41,41,33,29,80,43,28,30.04,29.94,6,1,6,0.00
2013-5-22,71,56,40,44,35,30,71,48,25,30.08,29.96,5,1,5,0.00
2013-5-23,56,49,44,45,42,38,89,76,63,30.11,30.02,8,2,8,0.00
2013-5-24,80,62,48,51,37,17,93,51,11,30.06,29.99,7,2,8,0.00
2013-5-25,82,66,49,45,28,16,67,31,8,30.07,29.98,7,1,7,0.00
2013-5-26,81,65,55,39,27,17,51,27,10,30.05,29.94,8,1,8,0.00
2013-5-27,78,62,49,41,28,17,63,32,13,29.99,29.87,8,1,8,0.00
2013-5-28,75,61,49,48,37,25,73,43,22,29.92,29.73,8,1,8,0.00
2013-5-29,60,52,44,46,40,29,82,63,38,29.82,29.71,5,1,5,0.03
2013-5-30,67,54,42,33,26,17,64,37,17,29.94,29.78,8,1,8,0.00
2013-5-31,67,56,42,27,19,13,53,26,15,30.06,29.91,6,1,6,0.00
2013-6-1,64,51,37,36,30,16,64,44,29,30.21,30.06,6,1,6,0.00
2013-6-2,76,60,42,39,33,26,69,40,19,30.20,29.97,8,2,8,0.00
2013-6-3,86,70,54,34,26,21,39,22,10,30.02,29.90,7,1,7,0.00
2013-6-4,76,59,48,51,37,20,86,48,25,30.18,30.02,6,1,6,0.03
2013-6-5,55,47,42,48,42,38,89,83,72,30.19,30.12,6,1,6,0.02
2013-6-6,75,60,43,47,39,32,90,53,25,30.18,30.09,7,1,7,0.00
2013-6-7,73,61,48,45,38,34,66,44,30,30.16,29.97,6,1,6,0.00
2013-6-8,75,63,53,47,39,33,50,42,32,30.10,29.92,7,1,7,0.00
2013-6-9,85,67,49,43,34,27,61,34,15,30.13,30.07,6,1,6,0.00
2013-6-10,94,76,61,36,30,25,31,21,10,30.11,30.03,7,1,7,0.00
2013-6-11,93,78,63,32,26,15,27,15,5,30.11,29.96,8,1,8,0.00
2013-6-12,85,72,56,36,25,19,30,18,12,30.22,30.11,9,1,9,0.00
2013-6-13,88,72,55,47,40,34,66,33,18,30.18,30.08,6,2,8,0.00
2013-6-14,88,69,59,48,38,27,58,34,13,30.13,30.05,8,1,8,0.02
2013-6-15,78,64,51,49,42,38,72,47,29,30.16,30.06,6,1,6,0.00
2013-6-16,80,63,51,50,40,32,71,46,18,30.23,30.13,6,1,6,0.01
2013-6-17,79,60,50,48,40,33,64,48,24,30.23,30.15,6,1,6,0.02
2013-6-18,81,62,50,54,46,40,84,59,29,30.19,30.03,8,1,8,0.36
2013-6-19,84,66,50,56,42,14,91,52,12,30.08,29.89,9,2,9,0.00
2013-6-20,88,71,56,38,27,16,37,21,6,30.04,29.94,6,1,6,0.00
2013-6-21,91,73,54,40,28,20,57,23,6,30.03,29.95,6,1,6,0.00
2013-6-22,86,68,52,51,35,20,65,34,11,30.05,29.93,8,1,8,0.00
2013-6-23,83,66,50,46,40,35,73,41,21,30.10,29.97,8,1,8,0.00
2013-6-24,83,66,51,48,34,18,65,37,10,30.04,29.93,8,1,8,0.00
2013-6-25,90,73,57,32,25,19,31,18,10,30.15,29.96,8,1,8,0.00
2013-6-26,90,76,61,48,36,30,46,26,15,30.22,30.14,6,1,6,0.00
2013-6-27,93,78,63,43,38,30,44,27,11,30.36,30.21,5,1,5,0.00
2013-6-28,92,77,58,54,46,37,87,37,16,30.40,30.24,8,1,8,0.42
2013-6-29,80,66,54,56,50,43,87,59,35,30.40,30.21,5,1,5,0.07
2013-6-30,75,62,56,58,50,43,79,66,50,30.28,30.21,5,1,5,0.05
2013-7-1,72,60,52,56,51,47,85,74,50,30.31,30.25,5,1,5,0.19
2013-7-2,77,63,50,54,46,38,86,58,28,30.31,30.21,6,1,6,0.00
2013-7-3,82,67,54,50,41,33,68,43,18,30.22,30.05,7,1,7,0.00
2013-7-4,85,70,56,46,41,35,57,38,18,30.12,30.06,6,1,6,0.00
2013-7-5,85,66,56,56,47,39,89,55,25,30.07,29.99,6,1,6,0.41
2013-7-6,82,66,55,55,50,45,83,61,29,30.14,30.02,5,1,5,0.11
2013-7-7,83,67,58,53,50,46,68,56,31,30.20,30.10,5,1,5,0.01
2013-7-8,88,73,60,53,47,41,67,42,22,30.23,30.14,5,1,5,0.00
2013-7-9,89,73,61,49,42,36,48,35,18,30.30,30.22,7,1,7,0.00
2013-7-10,85,68,59,57,49,40,77,52,31,30.29,30.17,7,1,7,0.14
2013-7-11,87,71,54,59,53,47,86,56,30,30.23,30.07,6,2,6,0.00
2013-7-12,86,72,62,54,50,46,68,47,27,30.17,30.08,5,1,5,0.00
2013-7-13,86,66,57,58,53,50,84,66,32,30.23,30.15,5,0,5,0.17
2013-7-14,77,64,55,58,54,50,89,71,48,30.27,30.18,6,1,6,0.59
2013-7-15,65,59,53,57,53,42,91,81,59,30.25,30.19,7,1,7,0.07
2013-7-16,72,61,51,53,48,45,84,65,43,30.30,30.18,7,2,7,0.00
2013-7-17,77,65,53,55,50,45,88,62,34,30.30,30.23,8,2,8,0.00
2013-7-18,86,69,56,52,49,46,76,51,30,30.25,30.16,5,1,5,0.00
2013-7-19,78,65,56,55,51,47,77,62,42,30.25,30.18,5,1,5,0.00
2013-7-20,85,68,55,58,52,41,87,59,25,30.19,30.05,8,1,8,0.00
2013-7-21,89,71,58,53,44,26,73,47,13,30.12,30.06,6,1,6,0.00
2013-7-22,89,79,68,48,37,25,42,24,12,30.13,30.07,7,1,7,0.00
2013-7-23,89,74,62,44,34,22,40,27,10,30.17,30.11,6,1,6,0.00
2013-7-24,88,61,54,60,53,32,89,77,14,30.31,30.16,8,1,8,0.58
2013-7-25,75,59,51,56,50,46,89,72,41,30.30,30.13,6,1,6,0.02
2013-7-26,78,64,53,54,48,45,78,58,35,30.31,30.24,7,1,7,0.00
2013-7-27,82,65,56,54,49,42,84,58,28,30.26,30.11,5,1,5,0.02
2013-7-28,72,59,55,60,54,51,89,84,64,30.14,30.04,5,0,5,0.39
2013-7-29,70,62,56,58,53,47,89,72,54,30.25,30.07,3,0,4,0.03
2013-7-30,80,64,52,55,49,44,83,61,32,30.32,30.22,5,1,5,0.11
2013-7-31,78,66,54,56,51,46,80,60,39,30.35,30.24,6,1,6,0.17
2013-8-1,83,67,56,59,51,45,88,59,29,30.30,30.10,5,1,5,0.00
2013-8-2,84,69,58,53,47,41,68,47,24,30.19,30.07,6,1,6,0.01
2013-8-3,77,65,56,56,52,47,86,64,46,30.32,30.15,6,1,6,0.19
2013-8-4,83,62,54,57,51,42,87,71,25,30.27,30.17,5,1,5,0.24
2013-8-5,80,66,55,54,48,38,82,57,25,30.22,30.13,4,1,4,0.00
2013-8-6,83,68,59,52,46,39,66,48,24,30.17,30.09,5,1,5,0.00
2013-8-7,63,59,54,54,50,45,86,73,56,30.18,30.09,4,0,4,0.12
2013-8-8,68,58,51,56,50,44,91,78,54,30.22,30.08,4,1,4,0.00
2013-8-9,72,58,50,52,47,42,83,69,46,30.26,30.18,6,1,6,0.08
2013-8-10,80,63,50,54,47,40,88,60,26,30.26,30.18,10,1,10,0.00
2013-8-11,76,62,55,54,47,41,79,60,35,30.24,30.18,4,1,6,0.12
2013-8-12,76,61,52,53,48,43,81,63,42,30.27,30.19,6,1,6,0.00
2013-8-13,72,59,51,52,48,44,84,69,43,30.27,30.18,3,1,4,0.19
2013-8-14,75,61,49,52,46,41,80,60,33,30.26,30.17,5,1,5,0.00
2013-8-15,79,66,54,46,43,38,69,46,26,30.25,30.17,5,1,5,0.00
2013-8-16,83,69,56,49,42,30,65,42,16,30.24,30.20,6,1,6,0.00
2013-8-17,85,71,59,53,42,27,64,38,13,30.24,30.15,5,1,5,0.00
2013-8-18,87,70,59,53,46,36,72,45,19,30.23,30.15,5,1,5,0.00
2013-8-19,85,70,58,58,46,36,64,44,19,30.23,30.16,5,1,5,0.03
2013-8-20,88,73,61,48,42,32,52,35,17,30.19,30.12,5,1,5,0.00
2013-8-21,86,68,59,53,44,36,78,46,23,30.21,30.14,4,1,6,0.14
2013-8-22,80,62,55,58,53,48,88,72,45,30.29,30.18,3,0,4,0.97
2013-8-23,55,54,52,51,50,49,90,88,81,30.28,30.13,1,0,2,0.17
2013-9-1,72,63,58,58,55,50,83,74,60,30.24,30.17,5,1,5,0.02
2013-9-2,82,67,56,60,54,49,86,64,39,30.20,30.15,6,1,6,0.00
2013-9-3,85,71,61,55,50,47,65,50,29,30.22,30.15,5,1,5,0.00
2013-9-4,83,70,63,54,50,47,61,50,32,30.28,30.20,4,0,4,0.00
2013-9-5,86,72,59,53,46,39,66,41,24,30.27,30.21,10,1,10,0.00
2013-9-6,87,73,62,46,40,37,50,32,19,30.24,30.16,7,1,7,0.00
2013-9-7,86,71,58,50,42,34,60,38,18,30.21,30.13,5,1,5,0.00
2013-9-8,85,72,60,46,41,37,48,34,23,30.13,30.00,6,1,6,0.00
2013-9-9,78,67,56,51,46,39,68,49,33,30.06,29.97,4,1,4,0.00
2013-9-10,58,56,56,53,52,52,89,86,83,30.27,30.23,2,0,2,0.04
2013-9-11,66,59,55,56,54,52,90,84,67,30.28,30.23,5,0,5,0.26
2013-9-12,62,57,54,58,54,51,92,89,84,30.32,30.23,3,0,3,1.26
2013-9-13,63,57,54,58,54,50,93,88,76,30.23,30.06,5,1,5,0.51
2013-9-14,70,58,50,55,50,46,90,77,51,30.11,30.03,4,0,4,0.10
2013-9-15,57,53,50,53,50,46,92,90,84,30.30,30.11,3,0,3,0.12
2013-9-16,62,54,49,54,50,47,92,88,76,30.29,30.17,8,1,8,0.02
2013-9-17,75,62,49,52,47,39,92,62,29,30.19,30.02,5,1,5,0.00
2013-9-18,76,64,55,49,45,40,67,50,30,30.08,29.99,5,1,5,0.00
2013-9-19,58,54,50,45,43,41,72,66,58,30.22,30.14,4,0,4,0.00
2013-9-20,64,54,46,50,45,40,89,74,57,30.23,30.14,5,1,5,0.00
2013-9-21,75,61,48,46,42,38,85,53,28,30.15,29.98,5,1,5,0.00
2013-9-22,72,59,49,46,42,38,84,55,33,29.98,29.75,7,0,7,0.05
2013-9-23,60,50,42,44,37,28,90,65,37,30.13,29.69,5,1,5,0.33
2013-9-24,66,53,42,35,30,25,58,43,27,30.18,30.01,4,1,5,0.00
2013-9-25,75,62,50,36,29,23,56,30,18,30.01,29.75,5,1,7,0.00
2013-9-26,72,59,44,45,34,24,73,43,23,29.88,29.78,7,1,8,0.00
2013-9-27,57,48,38,46,37,30,88,69,40,30.02,29.83,3,1,4,0.01
2013-9-28,61,45,31,33,26,20,86,51,29,30.18,30.01,4,1,6,0.00
2013-9-29,70,55,42,32,25,20,43,33,19,30.17,30.00,5,1,6,0.00
2013-9-30,76,61,50,41,32,21,46,34,24,30.05,29.94,3,1,6,0.00
2013-10-1,69,58,48,38,33,25,58,40,29,30.14,30.03,5,1,7,0.00
2013-10-2,69,57,47,38,36,32,67,47,28,30.07,29.98,4,0,4,0.00
2013-10-3,69,53,41,42,35,27,85,54,21,29.98,29.82,4,1,7,0.00
2013-10-4,46,34,25,41,30,20,88,84,77,30.12,29.81,3,1,4,0.10
2013-10-5,51,36,24,26,19,13,82,55,24,30.19,30.08,4,0,5,0.01
2013-10-6,62,47,35,32,22,8,52,37,28,30.26,30.18,4,0,4,0.00
2013-10-7,71,56,43,30,24,16,44,31,14,30.24,30.05,4,1,4,0.00
2013-10-8,70,59,47,30,25,19,46,27,18,30.05,29.88,3,0,4,0.00
2013-10-9,67,52,42,38,31,25,71,46,26,30.02,29.92,5,0,7,0.00
2013-10-10,59,46,39,41,34,24,83,64,42,30.00,29.66,5,1,6,0.02
2013-10-11,56,45,39,38,29,22,82,55,34,30.06,29.68,9,1,10,0.03
2013-10-12,50,42,37,38,34,30,88,75,60,30.15,30.05,4,1,6,0.00
2013-10-13,57,45,33,46,36,28,86,72,50,30.13,29.96,6,1,7,0.00
2013-10-14,53,44,32,40,34,27,89,71,40,30.11,29.87,4,1,5,0.00
2013-10-15,35,31,28,27,23,20,80,71,62,30.19,30.10,2,0,4,0.00
2013-10-16,47,35,28,29,24,20,87,65,36,30.12,29.99,3,1,4,0.00
2013-10-17,48,38,31,28,24,17,74,57,42,30.06,29.97,2,0,4,0.00
2013-10-18,37,31,26,27,25,22,85,76,63,30.10,29.97,2,0,3,0.17
2013-10-19,54,39,27,28,23,18,80,55,33,30.08,29.96,4,0,4,0.01
2013-10-20,44,37,30,32,25,18,85,63,46,30.09,29.93,2,0,4,0.00
2013-10-21,48,36,28,34,25,23,87,66,39,30.16,30.08,4,0,4,0.04
2013-10-22,57,45,35,31,27,23,63,50,33,30.20,30.13,3,1,6,0.00
2013-10-23,61,48,39,32,27,22,59,46,28,30.20,30.13,4,0,4,0.00
2013-10-24,58,44,35,36,30,25,76,59,39,30.21,30.16,3,0,4,0.00
2013-10-25,61,47,34,35,29,26,79,54,27,30.21,30.11,2,0,4,0.00
2013-10-26,56,45,34,34,29,27,77,56,33,30.29,30.16,4,0,4,0.00
2013-10-27,61,48,38,29,23,19,61,40,21,30.15,29.92,2,0,5,0.00
2013-10-28,43,36,31,30,26,19,86,67,40,30.00,29.92,3,0,4,0.00
2013-10-29,54,36,25,33,27,21,89,73,32,29.94,29.85,4,1,6,0.00
2013-10-30,50,37,29,32,26,19,90,67,31,29.87,29.80,4,0,5,0.00
2013-10-31,51,36,26,24,19,15,81,52,25,29.92,29.82,4,0,5,0.00
2013-11-1,42,36,32,28,22,16,69,57,47,30.17,29.92,3,0,4,0.00
2013-11-2,57,43,30,26,19,5,69,41,16,30.15,29.87,4,1,5,0.00
2013-11-3,59,50,32,24,17,9,69,28,18,29.88,29.69,5,1,8,0.00
2013-11-4,36,30,24,27,21,16,87,70,53,29.95,29.83,6,1,6,0.00
2013-11-5,34,27,19,24,15,4,85,62,43,30.05,29.83,4,0,4,0.00
2013-11-6,45,32,18,17,11,4,61,43,30,30.25,30.04,3,0,4,0.00
2013-11-7,53,39,29,22,17,12,51,41,27,30.28,30.04,3,1,4,0.00
2013-11-8,62,50,40,20,16,12,39,26,18,30.05,29.89,4,1,6,0.00
2013-11-9,54,44,38,26,22,15,59,42,33,30.20,30.05,4,1,5,0.00
2013-11-10,59,45,33,25,21,16,65,42,19,30.21,30.16,3,0,3,0.00
2013-11-11,58,41,28,26,20,15,78,46,20,30.43,30.18,2,0,4,0.00
2013-11-12,51,37,26,29,24,20,81,62,37,30.46,30.31,4,1,4,0.00
2013-11-13,59,45,35,20,12,6,49,29,13,30.31,30.03,2,0,3,0.00
2013-11-14,51,41,35,30,23,9,73,50,28,30.06,29.82,5,1,6,0.00
2013-11-15,54,42,32,27,19,14,73,42,21,29.82,29.58,6,1,8,0.00
2013-11-16,50,40,31,27,19,15,73,44,25,29.61,29.46,5,1,7,0.00
2013-11-17,46,34,26,22,18,14,70,53,33,30.05,29.61,3,1,5,0.00
2013-11-18,54,40,28,16,12,7,50,34,18,30.11,30.02,5,1,5,0.00
2013-11-19,54,44,36,20,15,10,43,32,24,30.02,29.79,3,0,5,0.00
2013-11-20,51,42,34,28,21,18,65,45,32,29.92,29.81,4,0,5,0.00
2013-11-21,38,14,7,28,8,2,81,77,67,30.28,29.92,2,0,3,0.00
2013-11-22,32,23,11,21,15,6,80,74,59,30.35,30.26,2,0,2,0.00
2013-11-23,30,22,18,18,13,9,84,67,44,30.37,30.14,3,0,4,0.00
2013-11-24,35,25,17,27,19,13,88,80,60,30.14,29.88,4,1,6,0.00
2013-11-25,32,28,23,25,19,14,82,71,57,30.18,29.93,5,1,6,0.00
2013-11-26,38,30,24,22,19,16,75,63,46,30.26,30.17,3,0,3,0.01
2013-11-27,50,37,27,22,18,14,62,47,31,30.16,30.04,3,0,3,0.00
2013-11-28,41,33,27,24,20,15,79,60,46,30.13,30.07,5,1,5,0.00
2013-11-29,50,38,28,21,18,15,76,46,27,30.13,30.05,2,0,3,0.00
2013-11-30,49,37,30,17,14,11,51,39,23,30.14,30.07,2,0,3,0.00
2013-12-1,49,37,29,21,14,10,51,41,29,30.10,29.90,2,0,3,0.00
2013-12-2,50,41,34,24,20,17,58,43,32,29.91,29.66,4,0,4,0.00
2013-12-3,50,35,10,25,17,4,77,51,34,29.66,29.53,4,1,8,0.00
2013-12-4,10,3,-4,4,-3,-10,77,74,72,29.81,29.57,1,0,1,0.00
2013-12-5,6,-1,-6,0,-7,-13,78,75,71,29.84,29.71,3,0,4,0.00
2013-12-6,5,-2,-8,-3,-8,-14,79,74,68,29.93,29.82,3,0,4,0.00
2013-12-7,8,1,-4,2,-5,-10,81,77,73,29.92,29.59,3,0,4,0.00
2013-12-8,19,11,3,12,6,-3,83,78,69,29.80,29.52,2,0,2,0.00
2013-12-9,19,9,0,5,0,-6,81,66,51,29.98,29.80,2,0,2,0.00
2013-12-10,40,25,12,17,8,-1,67,50,36,30.07,29.86,2,0,4,0.01
2013-12-11,32,22,12,17,10,6,80,62,37,30.20,30.07,4,1,5,0.00
2013-12-12,50,36,28,14,9,4,38,32,20,30.19,29.91,2,0,3,0.00
2013-12-13,41,30,23,16,10,2,64,43,29,30.03,29.81,3,0,4,0.00
2013-12-14,35,26,17,16,12,10,76,58,41,30.15,30.03,2,0,4,0.00
2013-12-15,50,36,26,22,15,8,57,44,32,30.12,30.06,3,0,3,0.00
2013-12-16,52,39,31,19,14,9,47,36,24,30.19,30.08,2,0,3,0.00
2013-12-17,52,40,32,19,14,9,42,35,26,30.25,30.08,2,0,5,0.00
2013-12-18,56,46,39,15,12,10,33,27,17,30.08,29.78,2,0,4,0.00
2013-12-19,52,39,20,22,18,12,82,45,24,29.78,29.60,2,0,6,0.00
2013-12-20,33,23,18,28,18,14,85,81,76,29.74,29.59,2,0,3,0.00
2013-12-21,31,23,19,19,15,12,82,74,55,29.77,29.51,2,0,3,0.00
2013-12-22,29,21,14,19,13,8,83,71,60,30.03,29.77,2,0,4,0.00
2013-12-23,34,24,14,20,15,8,82,70,55,30.12,30.02,3,0,4,0.00
2013-12-24,47,32,19,24,19,10,79,60,33,30.15,29.96,4,0,6,0.00
2013-12-25,35,25,17,12,7,2,68,48,31,30.24,30.13,3,0,5,0.00
2013-12-26,44,33,27,15,10,5,45,37,27,30.20,30.11,3,0,4,0.00
2013-12-27,50,37,29,20,15,10,49,40,28,30.20,30.02,2,0,3,0.00
2013-12-28,50,35,18,22,17,13,80,49,29,30.03,29.85,4,1,6,0.00
2013-12-29,28,19,13,18,12,7,81,75,64,30.06,29.86,2,0,3,0.00
2013-12-30,36,27,20,18,15,11,69,59,45,30.10,29.88,2,0,5,0.01
2013-12-31,47,34,25,23,17,11,60,49,36,30.03,29.91,2,0,4,0.02
2014-1-1,32,27,17,24,19,12,81,72,58,30.14,29.86,3,0,5,0.00
2014-1-2,42,28,17,19,14,12,81,58,30,30.13,29.98,4,0,4,0.00